Home   Weather   Monterrey   Past weeks

Flag for Mexico Past Weather in Monterrey, Nuevo León, Mexico — Yesterday and Last 2 Weeks

Now
77 °F

Clear.


Feels Like: 79 °F
Forecast: 73 / 102 °F
Wind: 3 mph from South

Location: Aerop. Internacional Monterrey - N. L.

Current Time: Apr 29, 2017 at 2:52:05 am

Latest Report: Apr 29, 2017 at 1:41 am


Visibility: 8 mi

Pressure: 29.58 "Hg (27.79 "Hg at 545m altitude)

Humidity: 65%

Dew Point: 64 °F

Location of MonterreyLocation

Past Weather in Monterrey — Graph

°F

Monterrey Temperature Yesterday

Maximum temperature yesterday: 104 °F (at 2:40 pm)
Minimum temperature yesterday: 68 °F (at 6:13 am)
Average temperature yesterday: 86 °F

High & Low Weather Summary for the Past Weeks

 TemperatureHumidityPressure
High104 °F (Apr 25, 2:40 pm)100% (Apr 14, 6:42 am)30.29 "Hg (Apr 14, 6:42 am)
Low57 °F (Apr 23, 6:00 am)6% (Apr 25, 2:40 pm)29.50 "Hg (Apr 28, 5:43 pm)
Average78 °F53%29.89 "Hg
* Reported Apr 14 6:42 am — Apr 29 12:40 am, Monterrey, Weather by CustomWeather, © 2017

Note: Actual official high and low records may vary slightly from our data, if they occured in-between our weather recording intervals... More about our weather records

Advertising

Monterrey Weather History for the Previous 24 Hours

Scroll right to see more
 ConditionsComfort  
Time TempWeatherWind HumidityBarometerVisibility
12:40 am
Sat, Apr 29
79 °FClear.3 mph61%29.60 "Hg8 mi
11:41 pm
Fri, Apr 28
82 °FClear.7 mph55%29.60 "Hg10 mi
10:47 pm84 °FClear.7 mph45%29.59 "Hg10 mi
9:45 pm90 °FClear.7 mph18%29.55 "Hg10 mi
8:40 pm93 °FClear.6 mph15%29.53 "Hg12 mi
7:46 pm97 °FSunny.9 mph16%29.52 "Hg15 mi
6:40 pm100 °FPassing clouds.17 mph16%29.50 "Hg12 mi
5:43 pm102 °FPassing clouds.17 mph13%29.50 "Hg10 mi
4:40 pm104 °FSunny.12 mph11%29.51 "Hg10 mi
3:40 pm104 °FSunny.12 mph9%29.53 "Hg10 mi
2:40 pm104 °FSunny.7 mph7%29.55 "Hg12 mi
1:40 pm102 °FSunny.10 mph7%29.85 "Hg10 mi
12:43 pm100 °FSunny.12 mph9%29.61 "Hg10 mi
11:40 am91 °FSunny.No wind26%29.63 "Hg5 mi
10:40 am79 °FFog.No wind65%29.64 "Hg3 mi
9:40 am70 °FFog.6 mph100%29.63 "Hg1 mi
9:04 am68 °FFog.2 mph100%29.63 "Hg1 mi
8:41 am68 °FFog.3 mph100%29.63 "Hg1 mi
8:17 am68 °FFog.2 mph100%29.63 "Hg0 mi
7:42 am68 °FFog.No wind100%29.62 "Hg0 mi
6:40 am68 °FFog.No wind100%29.62 "Hg0 mi
6:13 am68 °FFog.3 mph100%29.62 "Hg0 mi
5:49 am70 °FFog.2 mph100%29.61 "Hg1 mi
Weather by CustomWeather, © 2017

See weather overviewHow to use our weather pages